This is the latest recevied weather packets stored in our database for station/object SQ4IXR-4. If no packets are shown the sender has not sent any weather packets the latest 10 day(s).
| Time | Temp. | Humidity | Pressure | Rain* | Wind** | Luminosity | Snow |
|---|---|---|---|---|---|---|---|
| 1777580724 | 9.44° C | 45% | 1030.3 hPa | - | - | - | - |
| 1777579900 | 8.89° C | 46% | 1030.3 hPa | - | - | - | - |
| 1777579077 | 8.89° C | 45% | 1030.3 hPa | - | - | - | - |
| 1777578255 | 8.89° C | 44% | 1030.3 hPa | - | - | - | - |
| 1777576609 | 10° C | 42% | 1030.6 hPa | - | - | - | - |
| 1777575786 | 10° C | 41% | 1030.5 hPa | - | - | - | - |
| 1777574963 | 10° C | 41% | 1030.5 hPa | - | - | - | - |
| 1777574141 | 10.56° C | 39% | 1030.6 hPa | - | - | - | - |
| 1777573317 | 10.56° C | 39% | 1030.6 hPa | - | - | - | - |
| 1777571673 | 11.11° C | 37% | 1030.5 hPa | - | - | - | - |
| 1777570851 | 11.11° C | 36% | 1030.5 hPa | - | - | - | - |
| 1777570028 | 11.67° C | 36% | 1030.5 hPa | - | - | - | - |
| 1777569206 | 11.67° C | 35% | 1030.4 hPa | - | - | - | - |
| 1777568383 | 11.67° C | 35% | 1030.4 hPa | - | - | - | - |
| 1777567561 | 12.22° C | 35% | 1030.5 hPa | - | - | - | - |
| 1777566738 | 12.22° C | 34% | 1030.4 hPa | - | - | - | - |
| 1777565916 | 12.78° C | 33% | 1030.4 hPa | - | - | - | - |
| 1777565094 | 13.33° C | 32% | 1030.5 hPa | - | - | - | - |
| 1777564272 | 13.89° C | 32% | 1030.4 hPa | - | - | - | - |
| 1777563449 | 14.44° C | 30% | 1030.2 hPa | - | - | - | - |
| 1777562626 | 15.56° C | 28% | 1030.1 hPa | - | - | - | - |
| 1777561803 | 15.56° C | 28% | 1030 hPa | - | - | - | - |
| 1777560978 | 15° C | 28% | 1030.2 hPa | - | - | - | - |
| 1777560156 | 15° C | 28% | 1030.2 hPa | - | - | - | - |
| 1777558509 | 17.22° C | 25% | 1030.4 hPa | - | - | - | - |
* Rain since midnight (hover to see other rain measurements)
** Current wind speed in m/s (hover to see current wind gust speed)